Vertical_Velocity
-7 -20 7 -0 -3 -3 -11 -14 -3 8 1 -14 -5 -33 14 -7 -15 5 0 -4 0 -7 13 1 5 4 7 1 5 6 -0 3 -3 -0 -1 -3 4 -1 -4 2 4 -1 4 -1
-10 -14 2 0 4 -6 -4 -1 22 9 -1 -17 -9 -33 -10 12 -4 -13 4 2 -8 -1 9 3 -9 1 7 -0 5 1 9 3 2 1 -1 -3 -6 -5 -1 -4 1 0 3 3
-18 7 -1 2 -0 -3 3 0 22 -24 -0 -2 -10 -58 16 43 -21 1 -1 -11 -8 -3 -4 6 -4 -0 -1 7 8 -1 2 0 -7 3 1 -2 -4 -0 5 1 2 -0 4 2
-30 28 2 8 -7 3 -33 9 -8 5 -5 -1 9 -78 -32 28 -4 -12 26 -4 -3 13 -3 -7 -4 -11 2 19 -4 4 2 5 -5 -0 -8 4 3 -3 3 1 -1 3 -1 2
17 5 1 -1 8 -1 -3 -19 5 6 -15 11 -23 21 -71 16 -24 11 5 8 -0 -19 10 3 -8 -5 1 -1 3 2 -1 3 -9 3 -3 6 2 -1 -4 4 1 0 -1 2
12 -5 1 10 5 11 2 7 2 -5 21 -22 -29 83 -94 -42 -4 2 -2 -1 -3 5 -12 -2 -1 -4 -1 2 8 9 6 15 -4 -0 -2 10 6 8 -1 3 -0 0 1 3
-3 12 16 -5 -22 23 -1 14 -34 -29 17 -39 34 14 -45 -10 27 4 -18 -14 -4 -13 1 -21 1 -7 -0 -6 8 11 9 13 1 1 -5 10 9 11 5 5 18 -3 0 5
-13 -1 -1 6 3 1 8 -2 10 -8 -8 -27 -3 -60 -46 3 15 -9 -8 -9 -11 -11 12 11 -5 29 -5 2 -2 8 5 13 5 16 11 0 0 -1 -2 0 8 23 4 5
-17 -33 18 -2 0 11 11 -10 18 6 -11 -4 -18 -42 0 19 13 -4 -26 -4 -4 -22 11 -6 11 15 -1 -4 20 5 -2 6 7 4 9 4 8 9 -12 4 5 19 10 -1
-6 -47 9 12 8 7 4 5 -3 12 -2 -10 -17 -25 9 -13 -2 -11 -9 -20 13 -2 2 5 6 17 15 2 11 11 6 2 2 -3 9 8 8 3 -6 2 48 18 5 14
2 -4 -28 -13 17 -23 25 6 5 1 6 7 13 5 3 3 6 -11 -5 -4 -8 8 5 3 6 2 6 -2 7 10 4 2 -2 -8 10 3 -8 4 -5 -5 -1 -2 7 13
5 -8 -16 -26 17 -8 -5 5 4 6 8 10 22 -11 12 29 -20 3 -1 -1 -1 -16 3 1 0 2 6 -4 2 -2 3 2 3 1 5 8 11 3 -8 -11 62 6 2 21
-6 -11 -6 -12 -4 9 -6 11 1 3 24 -2 21 -22 30 17 -3 13 3 7 13 5 3 3 1 -4 2 1 -3 -10 -6 1 0 1 3 3 -5 8 -17 54 8 2 -5 10
-6 -6 5 -3 1 -0 -4 1 1 24 -7 17 5 -36 18 -2 -5 20 3 -7 23 4 6 10 18 8 -3 -4 -2 -3 1 1 1 -1 2 1 0 3 2 35 3 -0 -2 -1
-6 -3 -4 -2 -4 1 -5 -4 15 -1 -1 -12 -22 3 11 5 -12 16 -4 -13 -8 22 -10 -13 14 29 28 -6 8 20 1 -3 1 4 7 5 7 3 35 -1 16 -0 2 12
-0 -5 2 -3 -1 0 -18 3 14 8 2 3 4 -26 -12 2 -4 10 11 -8 6 -9 -13 -11 1 -8 28 6 2 -3 10 18 -2 2 2 6 19 4 4 3 2 -10 -1 -3
-5 5 -0 -29 7 -11 -24 29 -1 -4 9 8 -2 -4 2 -1 -0 -3 -10 4 -5 4 -26 -12 3 -2 11 -11 -9 -11 9 6 7 1 -3 3 5 3 1 -3 -13 2 6 4
4 0 -8 -18 1 -19 7 5 -3 -9 -4 8 6 -8 -11 -2 13 -0 -13 10 -2 -23 -27 -1 1 -1 -1 2 -7 -4 -5 1 0 4 1 -0 1 4 4 6 3 4 0 7
-1 -4 3 -14 -2 -10 -5 -3 -9 -4 -11 -16 -14 1 -5 1 -0 11 4 9 -16 -19 2 2 9 -2 1 -7 -7 -3 2 5 -3 0 -3 1 0 -12 -11 -12 -5 -3 -5 -2
1 1 -4 1 -16 -19 -2 3 5 -1 -24 -6 -6 6 -5 3 -9 6 3 -8 -2 -4 4 -2 2 4 -1 -4 -11 -16 -5 7 9 -1 -5 -3 8 -3 -1 5 1 1 2 10
-2 -8 -6 -2 -7 -20 8 -8 11 2 -5 -0 -6 -4 0 -2 -3 2 8 4 -1 4 -12 -2 2 -10 -3 4 0 2 5 1 9 -11 -10 -5 5 4 1 3 6 1 2 -1
-4 -6 -5 -4 -3 -11 -5 -5 -3 3 3 -5 12 20 -1 6 26 -1 -2 12 6 15 6 -12 -6 14 -3 9 15 1 11 -2 4 0 -7 -4 3 -3 2 1 6 3 -3 -2
-11 -2 -5 -1 -4 5 -10 -5 -3 -2 11 11 -1 -10 5 25 11 -2 3 -6 -2 -1 2 15 6 53 20 5 -1 4 -5 4 -0 1 -3 -2 5 11 5 -0 -2 -1 1 -2
-1 8 -14 8 14 -16 -2 -9 -7 -2 8 1 -2 9 10 17 5 -5 -7 -3 2 -5 3 5 17 28 13 4 -0 11 -3 14 -9 3 2 -9 -3 7 3 -4 2 -3 -2 8
14 3 16 -6 -8 -3 -6 -6 -9 -2 -4 -4 -3 -5 3 28 8 1 1 4 7 4 3 14 7 24 13 -1 -4 -6 11 -0 -2 3 -8 -10 2 0 2 -6 4 -3 1 8
29 3 -14 -26 8 -11 -9 10 -12 0 -4 -4 -2 -1 10 3 0 3 1 0 2 1 -2 -3 1 2 -3 -4 -3 -7 -5 -6 3 2 -8 -1 3 -1 -0 0 1 4 7 8
Height
5742 5742 5744 5746 5742 5742 5741 5739 5739 5738 5738 5737 5735 5742 5752 5749 5749 5748 5748 5748 5748 5748 5745 5742 5740 5740 5738 5737 5736 5736 5735 5735 5733 5732 5731 5730 5730 5731 5731 5733 5734 5735 5736 5737
5738 5736 5734 5733 5732 5731 5731 5730 5731 5729 5724 5722 5721 5731 5741 5743 5743 5741 5742 5742 5739 5737 5736 5732 5730 5730 5729 5727 5725 5726 5726 5725 5723 5721 5720 5720 5720 5721 5721 5722 5723 5725 5726 5726
5726 5725 5722 5724 5721 5719 5722 5717 5719 5713 5708 5709 5706 5717 5729 5733 5729 5728 5731 5730 5730 5727 5725 5721 5718 5718 5717 5717 5715 5715 5715 5713 5712 5711 5711 5712 5711 5711 5712 5714 5716 5716 5716 5716
5711 5714 5715 5712 5707 5703 5708 5706 5702 5699 5696 5698 5696 5695 5713 5715 5716 5718 5716 5713 5713 5713 5708 5708 5706 5706 5705 5706 5702 5702 5702 5702 5700 5701 5703 5702 5701 5701 5702 5703 5703 5704 5705 5706
5700 5700 5698 5696 5695 5691 5695 5690 5687 5685 5683 5677 5693 5663 5691 5703 5702 5708 5701 5699 5697 5696 5697 5692 5691 5691 5690 5689 5688 5688 5687 5688 5688 5690 5691 5691 5690 5690 5691 5692 5692 5694 5694 5694
5685 5685 5682 5683 5682 5678 5680 5678 5671 5669 5669 5657 5677 5663 5658 5686 5689 5682 5680 5682 5680 5677 5679 5682 5675 5673 5673 5672 5673 5674 5675 5676 5676 5676 5680 5680 5679 5679 5679 5679 5682 5682 5682 5683
5671 5674 5674 5669 5665 5665 5663 5662 5653 5647 5646 5641 5662 5649 5646 5660 5668 5663 5655 5658 5661 5660 5659 5660 5660 5654 5654 5655 5656 5656 5659 5662 5664 5666 5667 5669 5668 5669 5669 5669 5670 5668 5669 5672
5653 5665 5660 5654 5655 5654 5649 5645 5641 5625 5630 5628 5635 5622 5636 5642 5641 5640 5635 5634 5640 5640 5637 5637 5637 5635 5637 5639 5640 5639 5642 5645 5649 5654 5658 5659 5659 5657 5658 5657 5659 5653 5658 5659
5632 5642 5647 5640 5640 5637 5642 5634 5629 5613 5612 5603 5610 5611 5618 5630 5614 5609 5613 5611 5609 5615 5614 5613 5615 5614 5618 5622 5624 5625 5626 5628 5633 5639 5642 5643 5645 5645 5646 5645 5646 5639 5643 5645
5614 5616 5629 5629 5621 5621 5617 5621 5613 5608 5596 5588 5586 5586 5591 5599 5589 5583 5586 5588 5590 5590 5589 5589 5594 5594 5596 5604 5608 5609 5611 5615 5620 5624 5628 5629 5632 5633 5635 5632 5625 5632 5635 5633
5598 5596 5612 5611 5605 5603 5605 5598 5595 5589 5590 5581 5570 5573 5571 5570 5565 5564 5568 5569 5572 5570 5567 5571 5570 5575 5581 5586 5591 5594 5598 5604 5608 5612 5614 5614 5618 5621 5623 5624 5621 5621 5621 5623
5585 5579 5581 5589 5593 5582 5582 5581 5581 5577 5575 5567 5559 5552 5564 5561 5555 5551 5552 5552 5553 5553 5553 5553 5555 5556 5563 5570 5577 5580 5586 5591 5595 5597 5598 5599 5605 5609 5612 5612 5604 5608 5609 5610
5569 5566 5561 5564 5568 5566 5565 5571 5564 5561 5558 5552 5541 5544 5554 5541 5551 5547 5540 5540 5541 5539 5540 5541 5543 5544 5548 5556 5563 5568 5573 5578 5581 5584 5587 5590 5593 5596 5602 5599 5595 5592 5600 5602
5550 5551 5551 5548 5549 5546 5550 5555 5553 5546 5542 5536 5534 5528 5544 5532 5537 5534 5532 5533 5535 5533 5531 5533 5533 5533 5532 5540 5547 5554 5560 5565 5570 5572 5574 5578 5581 5584 5587 5584 5581 5586 5588 5593
5535 5534 5537 5538 5539 5539 5536 5544 5539 5534 5530 5522 5524 5519 5530 5526 5527 5527 5523 5526 5527 5528 5525 5525 5527 5526 5523 5527 5530 5537 5545 5552 5558 5561 5563 5568 5572 5573 5573 5579 5573 5574 5582 5584
5526 5525 5525 5526 5532 5526 5523 5532 5528 5524 5522 5517 5513 5510 5515 5519 5519 5519 5519 5518 5518 5520 5521 5520 5520 5522 5524 5522 5525 5530 5533 5538 5545 5550 5554 5557 5559 5562 5564 5566 5565 5570 5574 5576
5516 5516 5513 5517 5518 5513 5512 5523 5515 5513 5513 5505 5500 5503 5504 5506 5509 5508 5510 5511 5509 5509 5514 5514 5516 5517 5520 5521 5522 5526 5526 5529 5535 5540 5544 5548 5549 5549 5554 5556 5560 5561 5563 5565
5505 5507 5503 5507 5506 5502 5509 5509 5503 5500 5503 5497 5491 5490 5493 5491 5496 5499 5501 5500 5497 5499 5507 5508 5510 5511 5511 5517 5517 5515 5519 5525 5526 5529 5534 5537 5540 5544 5546 5548 5550 5553 5551 5552
5498 5497 5496 5494 5495 5492 5499 5497 5493 5489 5490 5485 5482 5479 5479 5478 5480 5489 5487 5489 5488 5494 5498 5498 5502 5504 5506 5507 5510 5510 5512 5518 5520 5522 5525 5527 5531 5534 5537 5541 5543 5544 5544 5543
5490 5489 5490 5486 5481 5479 5485 5481 5476 5472 5474 5475 5472 5471 5470 5468 5467 5478 5476 5476 5480 5483 5486 5487 5488 5493 5494 5495 5499 5503 5504 5506 5509 5513 5515 5518 5522 5525 5528 5528 5531 5535 5532 5532
5481 5480 5479 5475 5469 5472 5471 5466 5465 5466 5470 5467 5464 5465 5462 5459 5459 5465 5466 5465 5467 5471 5473 5474 5477 5479 5482 5482 5484 5490 5495 5497 5500 5503 5506 5510 5515 5517 5518 5517 5520 5523 5524 5525
5472 5470 5470 5466 5464 5464 5462 5458 5458 5460 5460 5461 5460 5458 5457 5456 5452 5453 5452 5453 5453 5459 5455 5461 5467 5471 5470 5471 5474 5478 5483 5489 5492 5494 5498 5502 5505 5507 5508 5509 5511 5513 5514 5515
5465 5463 5460 5459 5459 5457 5455 5453 5453 5452 5455 5455 5454 5454 5453 5450 5448 5446 5444 5446 5447 5449 5449 5453 5455 5460 5456 5461 5464 5471 5476 5481 5486 5489 5490 5491 5493 5495 5499 5502 5503 5504 5505 5506
5456 5454 5450 5447 5454 5449 5448 5448 5447 5447 5449 5450 5450 5449 5448 5446 5444 5441 5439 5438 5439 5442 5444 5445 5450 5448 5450 5456 5460 5465 5469 5475 5479 5482 5483 5487 5490 5491 5491 5491 5493 5495 5495 5495
5449 5445 5444 5438 5440 5437 5437 5438 5439 5440 5441 5444 5445 5446 5444 5445 5442 5439 5437 5436 5437 5439 5440 5442 5444 5444 5443 5450 5457 5462 5465 5470 5473 5475 5477 5480 5482 5483 5483 5484 5485 5485 5483 5482
5441 5438 5431 5426 5430 5421 5427 5430 5430 5431 5436 5439 5440 5440 5438 5441 5440 5439 5438 5437 5436 5437 5437 5438 5439 5441 5443 5448 5453 5455 5457 5460 5463 5466 5468 5470 5472 5474 5474 5475 5477 5476 5473 5471